This site uses a module created by best online poker sites.

BSB police report ending February 6, 2018

Print
"02/05/2018","00:03","218CR0003001","T/S","DUI DRUGS OR ALCOHOL","FLORENCE AND OTTAWA","ARREST(s) MADE",""
"02/05/2018","00:33","218CR0003002","BUSINESS CHECK","BUSINESS CHECK","531 S MONTANA","",""
"02/05/2018","00:38","218CR0003003","ACCIDENT","ACCIDENT","60 E BROADWAY","",""
"02/05/2018","01:24","218CR0003004","ALARM - BURGLARY","ALARM - BURGLARY","************","",""
"02/05/2018","01:42","218CR0003005","ATL","ATL","PARK AND MAIN","",""
"02/05/2018","01:42","218CR0003007","UNWANTED PERSON","UNWANTED PERSON","************","",""
"02/05/2018","01:43","218CR0003006","T/S","AGGRAVATED DUI","TEXAS AND SILVERBOW BLVD","ARREST(s) MADE",""
"02/05/2018","02:15","218CR0003008","DISTURBANCE","PFMA - WEAPON","212 N CLARK","",""
"02/05/2018","02:26","218CR0003009","SUSPICIOUS ACTIVITY","CRIMINAL CONTEMPT","2909 SILVERBOW BLVD","ARREST(s) MADE",""
"02/05/2018","02:54","218CR0003010","THEFT","THEFT","225 N ALASKA ST","",""
"02/05/2018","04:07","218CR0003011","MEDICAL - EMERGENCY","MEDICAL - EMERGENCY","721 HOBSON #4","",""
"02/05/2018","04:22","218CR0003012","DISTURBANCE","DISTURBANCE","305 N WASHINGTON","",""
"02/05/2018","06:24","218CR0003013","SUSPICIOUS ACTIVITY","SUSPICIOUS ACTIVITY","1370 HARRISION AVE","",""
"02/05/2018","06:43","218CR0003014","SUSPICIOUS ACTIVITY","SUSPICIOUS ACTIVITY","100 BLK N MONTANA ST","",""
"02/05/2018","07:22","218CR0003015","THEFT","THEFT FROM MOTOR VEHICLE","2700 BLK SHERMAN","",""
"02/05/2018","07:23","218CR0003016","ACCIDENT-MHP","ACCIDENT-MHP","I15 MM 126 S BND","",""
"02/05/2018","07:53","218CR0003017","DETENTION BUSINESS","DETENTION BUSINESS","************","",""
"02/05/2018","08:01","218CR0003018","THEFT","THEFT BY EMBEZZLEMENT","3219 HARRISON AVE","",""
"02/05/2018","08:06","218CR0003019","ACCIDENT","ACCIDENT","1000 BLK S EXCELCIOR","",""
"02/05/2018","08:38","218CR0003020","THEFT","THEFT FROM MOTOR VEHICLE","3309 CARTER","",""
"02/05/2018","08:45","218CR0003021","HIT AND RUN","HIT AND RUN","PORPHYRY AND WASHINGTON","",""
"02/05/2018","08:55","218CR0003023","SUSPICIOUS ACTIVITY","SUSPICIOUS ACTIVITY","2100 CORNELL","",""
"02/05/2018","08:56","218CR0003022","ALL OTHER","ALL OTHER","119130 GERMAN GULCH ROAD","",""
"02/05/2018","09:16","218CR0003024","CIVIL PAPER SERVICE","CIVIL PAPER SERVICE","3025 EAGLE ST","",""
"02/05/2018","09:20","218CR0003025","MEDICAL - EMERGENCY","MEDICAL - EMERGENCY","9 S IDAHO","",""
"02/05/2018","09:30","218CR0003026","PARKING COMPLAINT","PARKING COMPLAINT","736 S DAKOTA","",""
"02/05/2018","09:49","218CR0003027","CIVIL PAPER SERVICE","CIVIL PAPER SERVICE","540 S COLORADO","",""
"02/05/2018","09:51","218CR0003028","VANDALISM/CRIMINAL MISCHIEF","CRIMINAL MISCHIEF","3707 GREEN LANE","",""
"02/05/2018","09:53","218CR0003029","CIVIL PAPER SERVICE","CIVIL PAPER SERVICE","502 W PARK #2","",""
"02/05/2018","09:58","218CR0003030","MEDICAL - EMERGENCY","MEDICAL - EMERGENCY","9 S MONTANA ST","",""
"02/05/2018","09:59","218CR0003031","CIVIL PAPER SERVICE","CIVIL PAPER SERVICE","809 TRAVONIA","",""
"02/05/2018","10:01","218CR0003032","CITIZEN AID","CITIZEN AID","800 BLK MAIN ST","",""
"02/05/2018","10:04","218CR0003033","ALARM - FIRE","ALARM - FIRE","3701 ELIZABETH WARREN","",""
"02/05/2018","10:29","218CR0003034","SUICIDE ATTEMPT/THREAT","SUICIDE ATTEMPT/THREAT","************","",""
"02/05/2018","10:30","218CR0003035","THEFT","THEFT","","",""
"02/05/2018","10:35","218CR0003036","THEFT","THEFT, ALL OTHERS","3535 S ARIZONA","",""
"02/05/2018","10:55","218CR0003037","MEDICAL - EMERGENCY","MEDICAL - EMERGENCY","911 N HENRY","",""
"02/05/2018","10:58","218CR0003040","WELFARE CHECK","WELFARE CHECK","303 N WASHINGTON","",""
"02/05/2018","10:59","218CR0003038","THEFT","THEFT FROM MOTOR VEHICLE","2914 YALE","",""
"02/05/2018","10:59","218CR0003039","THEFT","THEFT, SHOPLIFT","2711 HARRISON","",""
"02/05/2018","11:07","218CR0003041","ALL OTHER","ALL OTHER","CALEDONIA AND EXCELSIOR","",""
"02/05/2018","11:08","218CR0003042","MEDICAL - EMERGENCY","MEDICAL - EMERGENCY","3150 OTTAWA ST","",""
"02/05/2018","11:23","218CR0003043","JUVENILE MISC","POSSESS DRUG PARAPHERNALIA","401 S WYOMING ST","ARREST(s) MADE",""
"02/05/2018","11:44","218CR0003044","T/S","T/S @ DEWEY AND HARRISON","DEWEY AND HARRISON","",""
"02/05/2018","12:11","218CR0003045","ASSIST OTHER AGENCY","ASSIST OTHER AGENCY","I 90 MM 218 E BND","",""
"02/05/2018","12:13","218CR0003046","CIVIL PAPER SERVICE","CIVIL PAPER SERVICE","808 W SILVER","",""
"02/05/2018","12:14","218CR0003047","CIVIL PAPER SERVICE","CIVIL PAPER SERVICE","209 S CRYSTAL ST","",""
"02/05/2018","12:16","218CR0003048","THEFT","THEFT FROM MOTOR VEHICLE","501 S DAKOTA","",""
"02/05/2018","12:23","218CR0003049","CIVIL PAPER SERVICE","CIVIL PAPER SERVICE","910 EVANS #C5","",""
"02/05/2018","12:30","218CR0003050","CIVIL PAPER SERVICE","CIVIL PAPER SERVICE","4105 WESTERN","",""
"02/05/2018","12:34","218CR0003051","WELFARE CHECK","WELFARE CHECK","636 1/2 W PARK","",""
"02/05/2018","12:54","218CR0003052","ASSAULT","PFMA - MINOR INJ/PHYSICAL CONT","134 S MAIN","",""
"02/05/2018","12:57","218CR0003053","LED BUSINESS","LED BUSINESS","24 E COPPER","",""
"02/05/2018","13:07","218CR0003054","DRUGS","DRUGS","************","",""
"02/05/2018","13:53","218CR0003055","T/S","T/S @ UTAH AND FRONT","UTAH AND FRONT","",""
"02/05/2018","13:54","218CR0003056","ACCIDENT","ACCIDENT","ARIZONA ST AND PARK ST","",""
"02/05/2018","14:03","218CR0003057","SUSPICIOUS ACTIVITY","SUSPICIOUS ACTIVITY","400 BLK S ARIZONA","",""
"02/05/2018","14:09","218CR0003058","THEFT","THEFT","225 S JACKSON","",""
"02/05/2018","14:09","218CR0003059","WELFARE CHECK","WELFARE CHECK","50 W BROADWAY # 303","",""
"02/05/2018","14:50","218CR0003060","UNWANTED PERSON","THEFT, ALL OTHERS","200 S EXCELSIOR","",""
"02/05/2018","15:00","218CR0003061","RESTRAINING ORDER VIOLATION","RESTRAINING ORDER VIOLATION","************","",""
"02/05/2018","15:06","218CR0003062","ACCIDENT","ACCIDENT","3RD ST AND UTAH AVE","",""
"02/05/2018","15:08","218CR0003063","ALL OTHER","ALL OTHER","2084 HARRISON","",""
"02/05/2018","15:19","218CR0003065","ALL OTHER","ALL OTHER","630 W MERCURY","",""
"02/05/2018","15:19","218CR0003064","WELFARE CHECK","WELFARE CHECK","1706 HOBSON","",""
"02/05/2018","15:22","218CR0003066","MEDICAL - EMERGENCY","MEDICAL - EMERGENCY","5103 HARRISON AVE","",""
"02/05/2018","15:26","218CR0003067","ALARM - MEDICAL","ALARM - MEDICAL","************","",""
"02/05/2018","15:29","218CR0003068","UNWANTED PERSON","UNWANTED PERSON","************","",""
"02/05/2018","15:33","218CR0003069","UNWANTED PERSON","UNWANTED PERSON","************","",""
"02/05/2018","15:37","218CR0003070","THEFT","BURGLARY, NON-RESIDENCE","1421 W GOLD","",""
"02/05/2018","15:41","218CR0003072","THEFT","THEFT FROM MOTOR VEHICLE","1201 ANTIMONY ST","",""
"02/05/2018","15:41","218CR0003071","T/S","T/S","SAMPSON AND BUSCH","",""
"02/05/2018","15:44","218CR0003073","MISSING PERSON","MISSING PERSON","************","",""
"02/05/2018","16:00","218CR0003074","T/S","T/S @ PARK AND MONTANA","PARK AND MONTANA","",""
"02/05/2018","16:10","218CR0003075","T/S","T/S @ S MONTANA AND JOSETTE","S MONTANA AND JOSETTE","",""
"02/05/2018","16:13","218CR0003076","T/S","T/S","MERCURY AND EXCELSIOR","",""
"02/05/2018","16:27","218CR0003077","T/S","OPERATING WITHOUT CURRENT REGI","STUART AND FARRELL","",""
"02/05/2018","16:29","218CR0003078","UNKNOWN PROBLEM","UNKNOWN PROBLEM","323 S MONTANA NO 1","",""
"02/05/2018","16:45","218CR0003079","ALL OTHER","ALL OTHER","225 N ALASKA","",""
"02/05/2018","16:56","218CR0003080","ASSIST OTHER AGENCY","ASSIST OTHER AGENCY","1053 S COLORADO","",""
"02/05/2018","17:14","218CR0003081","THEFT","DECEPTIVE PRACT - CREDIT CARD","2031 UTAH","",""
"02/05/2018","17:24","218CR0003082","DISTURBANCE-NOISE","DISTURBANCE-NOISE","2102 ELM ST","",""
"02/05/2018","17:42","218CR0003083","MEDICAL - EMERGENCY","MEDICAL - EMERGENCY","MELROSE","",""
"02/05/2018","17:46","218CR0003084","WELFARE CHECK","WELFARE CHECK","721 COLORADO","",""
"02/05/2018","17:57","218CR0003085","ALARM - BURGLARY","ALARM - BURGLARY","************","",""
"02/05/2018","17:59","218CR0003086","UNWANTED PERSON","UNWANTED PERSON","************","",""
"02/05/2018","18:16","218CR0003087","ASSIST OTHER AGENCY","ASSIST OTHER AGENCY","640 W BROADWAY","",""
"02/05/2018","19:18","218CR0003088","MEDICAL - EMERGENCY","MEDICAL - EMERGENCY","525 E MERCURY","",""
"02/05/2018","19:49","218CR0003089","T/S","T/S","CENTENIAL AND MONTANA","",""
"02/05/2018","19:51","218CR0003090","MEDICAL - EMERGENCY","MEDICAL - EMERGENCY","300 MOUNT HIGHLAND DR","",""
"02/05/2018","20:04","218CR0003091","WELFARE CHECK","WELFARE CHECK","1004 HORNET","",""
"02/05/2018","20:05","218CR0003092","UNWANTED PERSON","UNWANTED PERSON","************","",""
"02/05/2018","20:06","218CR0003093","SUSPICIOUS ACTIVITY","SUSPICIOUS ACTIVITY","ARIZONA AND SECOND","",""
"02/05/2018","20:14","218CR0003094","MEDICAL - EMERGENCY","MEDICAL - EMERGENCY","2420 WASHOE","",""
"02/05/2018","20:23","218CR0003095","THEFT","THEFT","2613 CONTINENTAL DR","",""
"02/05/2018","20:29","218CR0003096","T/S","T/S @ TEXAS AND FARRELL","TEXAS AND FARRELL","",""
"02/05/2018","20:36","218CR0003097","SUSPICIOUS ACTIVITY","SUSPICIOUS ACTIVITY","3040 PHILLIPS ST","",""
"02/05/2018","20:39","218CR0003098","MEDICAL - EMERGENCY","MEDICAL - EMERGENCY","3541 HARRISON AVE","",""
"02/05/2018","20:53","218CR0003099","ALARM-DURESS","ALARM-DURESS","************","",""
"02/05/2018","21:07","218CR0003100","UNKNOWN PROBLEM","UNKNOWN PROBLEM","806 PLACER ST","",""
"02/05/2018","21:40","218CR0003101","JUVENILE RUNAWAY","UNGOVERNABLE JUVENILE","1530 PHILLIPS AVE","ARREST(s) MADE",""
"02/05/2018","21:45","218CR0003102","FIRE - VEHICLE","FIRE - VEHICLE","100 BLK E ALUMINUM ST","",""
"02/05/2018","22:02","218CR0003103","UNWANTED PERSON","CRIMINAL TRESPASS TO PROPERTY","103 SILVERBOW HOMES","ARREST(s) MADE",""
"02/05/2018","22:07","218CR0003104","DISTURBANCE","DISTURBANCE","501 S MONTANA","",""
"02/05/2018","22:20","218CR0003105","SUSPICIOUS ACTIVITY","DISORDERLY CONDUCT","MONTANA AND IRON","ARREST(s) MADE",""
"02/05/2018","22:28","218CR0003106","JUVENILE MISC","JUVENILE MISC","************","",""
"02/05/2018","22:33","218CR0003107","CITIZEN AID","CITIZEN AID","HOLY CROSS CEMETERY","",""
"02/05/2018","22:59","218CR0003108","SUSPICIOUS ACTIVITY","SUSPICIOUS ACTIVITY","310 W FRONT ST","",""
"02/05/2018","23:09","218CR0003109","ALL OTHER","ALL OTHER","2100 CORNELL QUALITY INN","",""
"02/05/2018","23:37","218CR0003110","ASSIST OTHER AGENCY","ASSIST OTHER AGENCY","FRONT AND MONTANA","",""
"02/05/2018","23:43","218CR0003111","ALARM - BURGLARY","ALARM - BURGLARY","************","",""
"02/06/2018","00:31","218CR0003112","UNKNOWN PROBLEM","UNKNOWN PROBLEM","1021 GAYLORD","",""
"02/06/2018","00:55","218CR0003113","SUSPICIOUS ACTIVITY","SUSPICIOUS ACTIVITY","UTAH AVE AND ALUMINUM ST","",""
"02/06/2018","01:26","218CR0003114","PROWLER","PROWLER","1221 FARRELL","",""
"02/06/2018","01:48","218CR0003115","SUSPICIOUS ACTIVITY","SUSPICIOUS ACTIVITY","HAMBLIN HEIGHTS","",""
"02/06/2018","03:21","218CR0003116","SUSPICIOUS ACTIVITY","SUSPICIOUS ACTIVITY","705 E IRON SUMMIT VALLEY AUTO","",""
"02/06/2018","03:25","218CR0003117","SUSPICIOUS ACTIVITY","SUSPICIOUS ACTIVITY","2207 SILVERBOW BLVD","",""
"02/06/2018","04:43","218CR0003118","DISTURBANCE-NOISE","DISTURBANCE-NOISE","3519 GAYLORD","",""
"02/06/2018","05:27","218CR0003119","TRAFFIC","TRAFFIC","MONTANA AND TECUMSEH","",""
"02/06/2018","05:36","218CR0003120","MEDICAL - EMERGENCY","MEDICAL - EMERGENCY","1324 HARRISON","",""
"02/06/2018","05:42","218CR0003121","ROBBERY","ROBBERY","1507 CALIFORNIA","",""
"02/06/2018","06:15","218CR0003122","MEDICAL - EMERGENCY","MEDICAL - EMERGENCY","1803 PHILLIPS AVE","",""
"02/06/2018","06:25","218CR0003123","DISTURBANCE","DISTURBANCE","1324 HARRISON","",""
"02/06/2018","07:27","218CR0003124","UNWANTED PERSON","UNWANTED PERSON","************","",""
 
Tuesday the 13th. Affiliate Marketing.
Copyright 2012

©